Weather History for Fort Wayne, IN

Change the Weather History Date:

Saturday, January 18, 2014

  Actual Average Record
Temperature  
Mean Temperature 13 °F 25 °F  
Max Temperature 20 °F 32 °F 60 °F (1973)
Min Temperature 6 °F 17 °F -15 °F (1994)
Degree Days  
Heating Degree Days 52 40  
Month to date heating degree days 807 719  
Since 1 July heating degree days 3263 3047  
Cooling Degree Days 0 0  
Month to date cooling degree days 0 0  
Year to date cooling degree days 0 0  
Moisture  
Dew Point 12 °F    
Average Humidity 83    
Maximum Humidity 92    
Minimum Humidity 73    
Precipitation  
Precipitation 0.13 in 0.07 in 2.40 in (1949)
Month to date precipitation 2.13 1.38  
Year to date precipitation 2.13 1.38  
Snow  
Snow 1.80 in 0.30 in 4.60 in (1922)
Month to date snowfall 21.8 5.7  
Since 1 July snowfall 32.7 16.3  
Snow Depth 2.00 in    
Sea Level Pressure  
Sea Level Pressure 29.91 in    
Wind  
Wind Speed 9 mph (SSE)    
Max Wind Speed 17 mph    
Max Gust Speed 22 mph    
Visibility 5 miles    
Events Snow    
T = Trace of Precipitation, MM = Missing Value Source: NWS Daily Summary

Daily Weather History Graph

Daily Weather History Graph

Search for Another Location

Airport:

Trip Planner

Search our weather history database for the weather conditions in past years. The results will help you decide how hot, cold, wet, or windy it might be!

Date:

Astronomy

Jan. 18, 2014 Rise Set
Actual Time 8:01 AM EST 5:40 PM EST
Civil Twilight 7:31 AM EST 6:10 PM EST
Nautical Twilight 6:58 AM EST 6:44 PM EST
Astronomical Twilight 6:25 AM EST 7:17 PM EST
Moon 8:23 PM EST (1/18) 8:59 AM EST (1/18)
Length of Visible Light 10h 39m
Length of Day
9h 38m
Waning Gibbous, 94% of the Moon is Illuminated
Jan 18
Waning Gibbous
Jan 24
Last Quarter
Jan 30
New
Feb 6
First Quarter
Feb 14
Full

Hourly Weather History & Observations

Time (EST) Temp. Windchill Dew Point Humidity Pressure Visibility Wind Dir Wind Speed Gust Speed Precip Events Conditions
12:54 AM 12.0 °F -0.4 °F 8.1 °F 84% 30.01 in 6.0 mi SW 9.2 mph - 0.00 in Snow Light Snow
1:54 AM 12.9 °F -1.6 °F 8.1 °F 81% 29.99 in 5.0 mi SW 12.7 mph - 0.00 in Snow Light Snow
2:54 AM 12.9 °F -1.6 °F 8.1 °F 81% 30.00 in 9.0 mi WSW 12.7 mph - 0.00 in Snow Light Snow
3:54 AM 12.0 °F -1.3 °F 7.0 °F 80% 30.01 in 10.0 mi WSW 10.4 mph - 0.00 in Snow Light Snow
4:54 AM 12.0 °F -2.0 °F 8.1 °F 84% 30.00 in 10.0 mi WSW 11.5 mph - 0.00 in Snow Light Snow
5:54 AM 7.0 °F -4.5 °F 3.9 °F 87% 30.00 in 10.0 mi SSW 6.9 mph - 0.00 in   Scattered Clouds
6:54 AM 8.1 °F -5.3 °F 3.9 °F 83% 30.01 in 10.0 mi SW 9.2 mph - N/A   Mostly Cloudy
7:04 AM 8.6 °F -4.7 °F 5.0 °F 85% 29.95 in 5.0 mi SW 9.2 mph - 0.00 in Snow Light Snow
7:54 AM 9.0 °F -2.2 °F 5.0 °F 84% 29.99 in 10.0 mi SSW 6.9 mph - 0.00 in Snow Light Snow
8:54 AM 10.0 °F -1.9 °F 7.0 °F 87% 30.00 in 10.0 mi SSW 8.1 mph - 0.00 in   Mostly Cloudy
9:54 AM 12.9 °F 0.7 °F 8.1 °F 81% 30.01 in 10.0 mi SSW 9.2 mph - N/A   Mostly Cloudy
10:54 AM 15.1 °F 0.5 °F 10.0 °F 80% 30.00 in 10.0 mi SSW 13.8 mph - N/A   Mostly Cloudy
11:13 AM 15.8 °F 0.9 °F 10.4 °F 79% 29.95 in 10.0 mi SSW 15.0 mph 21.9 mph N/A   Mostly Cloudy
11:42 AM 17.6 °F 5.0 °F 10.4 °F 73% 29.92 in 10.0 mi SSW 11.5 mph - N/A   Mostly Cloudy
11:54 AM 17.1 °F 5.0 °F 10.0 °F 74% 29.96 in 10.0 mi SSW 10.4 mph - N/A   Mostly Cloudy
12:54 PM 18.0 °F 5.4 °F 12.0 °F 78% 29.94 in 10.0 mi South 11.5 mph - N/A   Overcast
1:54 PM 19.0 °F 7.5 °F 12.9 °F 77% 29.91 in 10.0 mi South 10.4 mph - N/A   Overcast
2:54 PM 19.9 °F 8.6 °F 12.9 °F 74% 29.89 in 10.0 mi SSE 10.4 mph - N/A   Overcast
3:51 PM 19.4 °F 6.0 °F 14.0 °F 80% 29.83 in 1.5 mi SSE 13.8 mph - 0.00 in Snow Light Snow
3:54 PM 19.9 °F 6.7 °F 14.0 °F 78% 29.87 in 1.5 mi SSE 13.8 mph - 0.00 in Snow Light Snow
4:06 PM 19.4 °F 6.6 °F 15.8 °F 86% 29.83 in 0.8 mi SSE 12.7 mph - 0.00 in Snow Light Snow
4:33 PM 19.4 °F 9.5 °F 15.8 °F 86% 29.82 in 1.2 mi SE 8.1 mph - 0.01 in Snow Light Snow
4:52 PM 19.4 °F 9.5 °F 15.8 °F 86% 29.82 in 0.8 mi SE 8.1 mph - 0.02 in Snow Light Snow
4:54 PM 19.9 °F 9.3 °F 16.0 °F 85% 29.87 in 0.8 mi SE 9.2 mph - 0.02 in Snow Light Snow
5:13 PM 19.4 °F 9.5 °F 15.8 °F 86% 29.82 in 0.8 mi ESE 8.1 mph - 0.01 in Snow Light Snow
5:54 PM 19.9 °F 12.1 °F 17.1 °F 89% 29.88 in 0.8 mi ESE 5.8 mph - 0.02 in Snow Light Snow
6:10 PM 19.4 °F 9.5 °F 17.6 °F 93% 29.84 in 0.8 mi ESE 8.1 mph - 0.01 in Snow Light Snow
6:54 PM 19.9 °F 12.1 °F 17.1 °F 89% 29.88 in 1.0 mi ESE 5.8 mph - 0.03 in Snow Light Snow
7:04 PM 19.4 °F 11.5 °F 17.6 °F 93% 29.84 in 0.8 mi ESE 5.8 mph - 0.01 in Snow Light Snow
7:19 PM 19.4 °F 10.4 °F 17.6 °F 93% 29.84 in 0.8 mi East 6.9 mph - 0.02 in Snow Light Snow
7:54 PM 19.9 °F 12.1 °F 18.0 °F 92% 29.88 in 0.8 mi East 5.8 mph - 0.03 in Snow Light Snow
8:33 PM 19.4 °F 9.5 °F 17.6 °F 93% 29.82 in 1.0 mi ENE 8.1 mph - 0.02 in Snow Light Snow
8:54 PM 19.9 °F 10.1 °F 17.1 °F 89% 29.86 in 1.5 mi ENE 8.1 mph - 0.02 in Snow Light Snow
9:54 PM 19.9 °F 11.1 °F 17.1 °F 89% 29.84 in 1.5 mi East 6.9 mph - 0.01 in Snow Light Snow
10:14 PM 19.4 °F 10.4 °F 17.6 °F 93% 29.79 in 2.0 mi ENE 6.9 mph - 0.00 in Snow Light Snow
10:36 PM 17.6 °F 8.2 °F 15.8 °F 93% 29.80 in 2.5 mi NE 6.9 mph - 0.00 in Snow Light Snow
10:47 PM 19.4 °F 10.4 °F 15.8 °F 86% 29.80 in 3.0 mi NE 6.9 mph - 0.00 in Snow Light Snow
10:54 PM 18.0 °F 9.8 °F 15.1 °F 88% 29.84 in 4.0 mi NNE 5.8 mph - 0.00 in Snow Light Snow
11:54 PM 19.0 °F 12.3 °F 16.0 °F 88% 29.81 in 8.0 mi ENE 4.6 mph - 0.00 in   Overcast